[[{"header":{"parameterUnit":"m.s-1","parameterCategory":1,"la1":30.2991,"la2":30.254,"lo1":-89.0895,"lo2":-89.0444,"dy":0.0017,"dx":0.0017,"nx":28,"ny":28,"refTime":"2026-02-14T09:00:00:Z","depth":0,"parameterNumber":2,"parameterNumberName":"U-component_of_WINDS"},"data":[0,0,0,0,0,0,0,0,0,0,0,0,0,0,0,0,0,0,0,0,0,0,0,0,0,0,0,0,0,0,0,0,0,0,0,0,0,0,0,0,0,0,0,0,0,0,0,0,0,0,0,0,0,0,0,0,0,0,3.0614,3.0613,0,3.0483,3.0482,3.048,3.0355,3.0354,3.0352,3.035,3.0213,3.0211,3.0209,0,0,0,0,0,0,0,0,0,0,0,0,0,3.0755,3.0753,3.0615,3.0613,3.0611,3.0483,3.0481,3.048,3.0355,3.0353,3.0352,3.035,3.0214,3.0211,3.0209,0,0,0,0,0,0,0,0,0,0,0,0,0,3.0666,3.0752,3.0615,3.0534,3.0525,3.0484,3.0481,3.0479,3.0356,3.0353,3.0351,3.0349,3.0215,3.0211,3.0208,3.0235,0,0,3.0198,3.0197,0,0,0,0,0,0,0,0,3.0671,3.0661,3.0547,3.0539,3.053,3.0433,3.048,3.0397,3.0356,3.042,3.035,3.0348,3.0288,3.0279,3.0259,3.0229,3.0223,3.0198,3.0196,3.0194,3.0194,0,0,0,0,0,0,0,3.0677,3.0666,3.0562,3.0546,3.0535,3.0503,3.0488,3.0464,3.0369,3.0414,3.0405,3.0391,3.0283,3.0262,3.0255,3.0221,3.0198,3.0195,3.0193,3.0192,3.0205,3.0208,0,0,0,0,0,0,3.0696,3.0672,3.0567,3.0558,3.0596,3.0503,3.0485,3.0466,3.0369,3.0352,3.0393,3.0386,3.0269,3.0259,3.025,3.0274,3.0194,3.0191,3.0189,3.0203,3.0206,3.0208,0,0,0,0,0,0,3.07,3.0688,3.0572,3.0612,3.0595,3.0503,3.0482,3.0465,3.0445,3.0353,3.0335,3.0391,3.0267,3.0254,3.024,3.0268,3.019,3.0187,3.02,3.0204,3.0207,3.0325,0,0,0,0,0,0,3.0704,3.069,3.07,3.0614,3.0594,3.0566,3.0484,3.0464,3.044,3.0429,3.0345,3.0329,3.0264,3.0245,3.0237,3.0262,3.0184,3.0197,3.0202,3.0206,3.0318,3.0332,3.0343,0,0,0,0,0,3.071,3.0738,3.0701,3.0689,3.0604,3.0567,3.0556,3.0481,3.0443,3.0451,3.0392,3.0332,3.0266,3.0245,3.0234,3.0259,3.0195,3.0201,3.0206,3.0312,3.0329,3.0343,0,0,0,0,0,0,3.0829,3.0725,3.0683,3.0684,3.0636,3.0546,3.0555,3.0501,3.0462,3.0453,3.0361,3.0343,3.0339,3.0297,3.0275,3.0279,3.0222,3.0226,3.0307,3.0322,3.0335,3.0345,3.0182,0,0,0,0,0,3.0855,3.0835,3.0745,3.0754,3.0732,3.0649,3.0629,3.0576,3.0522,3.05,3.044,3.0389,3.0356,3.0337,3.0302,3.0311,3.0291,3.0323,3.0336,3.0347,3.035,3.0352,3.0365,3.0226,3.0226,3.0226,0,0,3.0909,3.085,3.0843,3.0777,3.0733,3.0713,3.0632,3.0614,3.0598,3.0497,3.048,3.0435,3.0371,3.0369,3.0364,3.0333,3.0385,3.0353,3.0363,3.036,3.0359,3.0372,3.0384,3.0229,3.0229,3.0228,0,0,3.0997,3.0951,3.0954,3.0912,3.0847,3.0791,3.0792,3.0711,3.0677,3.0659,3.0583,3.0562,3.0508,3.0466,3.0438,3.0512,3.0454,3.0503,3.057,3.0572,3.0583,3.0592,3.0618,3.0629,3.0507,3.0507,3.0507,0,3.1072,3.104,3.0962,3.0949,3.0922,3.0831,3.0833,3.0795,3.0722,3.0705,3.0672,3.0603,3.0554,3.054,3.0559,3.0539,3.0536,3.0511,3.0588,3.0597,3.0604,3.0627,3.0638,3.0513,3.0513,3.0512,3.0511,0,3.1136,3.1115,3.1125,3.1058,3.1032,3.1027,3.0946,3.0929,3.0879,3.0826,3.0809,3.0747,3.0698,3.0691,3.0641,3.067,3.0653,3.0605,3.0546,3.0625,3.0645,3.0654,3.0522,3.052,3.0518,3.0517,0,0,3.1294,3.1185,3.1189,3.1158,3.108,3.1062,3.1052,3.1005,3.0993,3.0945,3.0934,3.0892,3.0847,3.0815,3.076,3.0762,3.0824,3.0713,3.0711,3.0736,3.0852,3.0888,3.09,3.0786,3.0787,3.0788,3.0857,0,3.1369,3.1347,3.1276,3.1276,3.1255,3.1169,3.116,3.1111,3.1062,3.1037,3.0982,3.0953,3.0897,3.0877,3.0875,3.0817,3.0846,3.0811,3.0774,3.0774,3.0792,3.0911,3.0948,3.1016,3.0865,3.0866,3.0867,0,3.1453,3.1413,3.1411,3.1334,3.1323,3.1316,3.1268,3.1245,3.1188,3.1151,3.1117,3.1055,3.1039,3.0985,3.0962,3.094,3.092,3.089,3.089,3.0883,3.0825,3.0906,3.1036,3.1046,3.0879,3.0878,3.0877,0,3.1568,3.1514,3.1505,3.1481,3.1391,3.1389,3.1351,3.1291,3.1268,3.1225,3.1209,3.1165,3.1141,3.1108,3.1036,3.1003,3.1021,3.0961,3.099,3.0992,3.0996,3.0997,3.1124,3.0986,3.0985,3.0985,3.0985,0,3.1659,3.1661,3.1556,3.1551,3.155,3.1468,3.147,3.1424,3.1372,3.1355,3.1278,3.1264,3.117,3.1145,3.1089,3.1078,3.1067,3.1037,3.1022,3.1044,3.1048,3.1029,3.1022,3.0988,3.0987,3.0987,3.0986,0,3.1787,3.1717,3.1702,3.1619,3.1598,3.1602,3.153,3.1521,3.1468,3.1448,3.1439,3.1355,3.1322,3.1247,3.1193,3.1155,3.1158,3.1131,3.1178,3.1168,3.1201,3.1199,3.1321,3.1332,3.1188,3.1189,3.1191,0,3.1849,3.1849,3.1766,3.175,3.1716,3.1692,3.1668,3.1587,3.1565,3.15,3.15,3.1461,3.1425,3.1376,3.1309,3.1268,3.1239,3.1284,3.1232,3.1254,3.1239,3.1239,3.1239,3.1296,3.1298,3.1299,3.1301,0,3.1966,3.1932,3.1901,3.1859,3.1833,3.1795,3.1752,3.1744,3.1653,3.1632,3.1598,3.1571,3.1517,3.1479,3.1427,3.1387,3.1329,3.1318,3.1322,3.1344,3.1371,3.1356,3.1209,3.1315,3.1314,3.1313,3.1312,3.1311,3.2063,3.2058,3.2,3.1968,3.1928,3.1891,3.1879,3.1825,3.1795,3.1746,3.17,3.167,3.1612,3.1538,3.1502,3.1476,3.1447,3.1454,3.1455,3.1458,3.1467,3.1376,3.1467,3.1466,3.1466,3.1465,3.1465,0,3.2175,3.2134,3.2106,3.205,3.2025,3.1974,3.1925,3.1907,3.1882,3.1834,3.1801,3.1761,3.1724,3.1656,3.1612,3.1605,3.1578,3.1597,3.1596,3.1588,3.1496,3.1496,3.162,3.162,3.162,3.162,3.162,3.162,3.2231,3.2221,3.218,3.215,3.2107,3.2079,3.2055,3.202,3.1981,3.1941,3.191,3.1866,3.1809,3.1762,3.1725,3.1706,3.1693,3.1721,3.1693,3.1609,3.1594,3.158,3.158,3.1719,3.1719,3.1786,3.1787,3.1787]},{"header":{"parameterUnit":"m.s-1","parameterCategory":1,"la1":30.2991,"la2":30.254,"lo1":-89.0895,"lo2":-89.0444,"dy":0.0017,"dx":0.0017,"nx":28,"ny":28,"refTime":"2026-02-14T09:00:00:Z","depth":0,"parameterNumber":3,"parameterNumberName":"V-component_of_WINDS"},"data":[0,0,0,0,0,0,0,0,0,0,0,0,0,0,0,0,0,0,0,0,0,0,0,0,0,0,0,0,0,0,0,0,0,0,0,0,0,0,0,0,0,0,0,0,0,0,0,0,0,0,0,0,0,0,0,0,0,0,9.1106,9.1107,0,9.1286,9.1288,9.129,9.128,9.1278,9.1275,9.1273,9.1453,9.146,9.1467,0,0,0,0,0,0,0,0,0,0,0,0,0,9.0747,9.0754,9.1105,9.1108,9.111,9.1286,9.1289,9.1291,9.1281,9.1278,9.1274,9.1271,9.145,9.1459,9.1467,0,0,0,0,0,0,0,0,0,0,0,0,0,9.0913,9.0756,9.1105,9.1126,9.113,9.1286,9.1289,9.1292,9.1281,9.1278,9.1274,9.127,9.1448,9.1458,9.1469,9.1614,0,0,9.1502,9.1506,0,0,0,0,0,0,0,0,9.0903,9.0926,9.1121,9.1125,9.1129,9.1257,9.1228,9.1399,9.1282,9.1224,9.1273,9.1268,9.139,9.1406,9.1448,9.1622,9.163,9.1503,9.1509,9.1514,9.1517,0,0,0,0,0,0,0,9.0892,9.0918,9.1177,9.1124,9.1129,9.1125,9.1145,9.1261,9.1326,9.1229,9.1228,9.125,9.1392,9.1438,9.1452,9.1632,9.1502,9.1512,9.1519,9.1523,9.1936,9.194,0,0,0,0,0,0,9.0876,9.0908,9.1171,9.1182,9.1005,9.1135,9.1156,9.122,9.1325,9.1338,9.1253,9.1249,9.1421,9.1439,9.1458,9.1637,9.1514,9.1524,9.153,9.1932,9.1937,9.1942,0,0,0,0,0,0,9.0869,9.09,9.1164,9.1045,9.1079,9.1145,9.1217,9.1225,9.1271,9.1344,9.1355,9.1288,9.1419,9.1443,9.1576,9.1643,9.1529,9.1539,9.1926,9.1933,9.194,9.1994,0,0,0,0,0,0,9.0858,9.0897,9.0954,9.1047,9.1085,9.128,9.1221,9.1232,9.129,9.1287,9.138,9.1391,9.1417,9.156,9.1587,9.1656,9.1547,9.1921,9.193,9.1937,9.1986,9.2001,9.2014,0,0,0,0,0,9.0846,9.096,9.0957,9.0988,9.1158,9.1283,9.1305,9.1335,9.1296,9.1353,9.14,9.1388,9.1631,9.1574,9.1604,9.1677,9.1917,9.1927,9.1937,9.198,9.1998,9.2014,0,0,0,0,0,0,9.0871,9.0972,9.097,9.1118,9.1193,9.1282,9.1354,9.1353,9.1438,9.1431,9.1462,9.1483,9.1617,9.166,9.1594,9.1824,9.1769,9.1785,9.1791,9.1809,9.1823,9.181,9.1556,0,0,0,0,0,9.0894,9.0989,9.1072,9.1195,9.1233,9.1287,9.1343,9.136,9.1437,9.1468,9.1524,9.1599,9.1692,9.1753,9.1842,9.1992,9.2013,9.2057,9.2071,9.2082,9.2097,9.2181,9.2202,9.1975,9.1975,9.1975,0,0,9.0942,9.1009,9.1067,9.1202,9.1261,9.1359,9.1314,9.1418,9.149,9.1483,9.1613,9.1657,9.1742,9.1885,9.195,9.1925,9.2164,9.2095,9.2104,9.2112,9.2193,9.2215,9.2234,9.1982,9.1981,9.198,0,0,9.1079,9.114,9.125,9.1311,9.1403,9.1439,9.1465,9.1555,9.1585,9.1716,9.1714,9.1799,9.1959,9.202,9.2072,9.2235,9.2228,9.2263,9.2337,9.2419,9.2437,9.2453,9.2513,9.2534,9.2277,9.2277,9.2277,0,9.1127,9.1275,9.1306,9.1412,9.1472,9.1472,9.1584,9.1641,9.1756,9.1797,9.1767,9.1969,9.2026,9.2184,9.2224,9.2266,9.2297,9.2253,9.2432,9.2448,9.2464,9.2521,9.2543,9.2281,9.2281,9.228,9.228,0,9.133,9.1433,9.151,9.1625,9.1693,9.1801,9.1847,9.1912,9.1923,9.1962,9.2096,9.2165,9.2269,9.2308,9.2318,9.2468,9.2449,9.2425,9.2371,9.2489,9.2543,9.2565,9.2287,9.2285,9.2284,9.2283,0,0,9.1488,9.162,9.1648,9.1701,9.1803,9.1883,9.1991,9.2095,9.2151,9.223,9.2322,9.2458,9.2438,9.2497,9.2514,9.2585,9.2713,9.2553,9.2555,9.2582,9.2884,9.2902,9.2927,9.2708,9.2712,9.2716,9.2877,0,9.1638,9.1832,9.1864,9.2034,9.213,9.2132,9.2226,9.2299,9.2338,9.2424,9.2466,9.2563,9.2528,9.2564,9.2635,9.2682,9.2774,9.267,9.2794,9.2798,9.2774,9.2955,9.2975,9.3124,9.2898,9.2902,9.2905,0,9.1838,9.1927,9.2107,9.2199,9.224,9.2324,9.2424,9.2506,9.2588,9.2611,9.2679,9.2688,9.28,9.274,9.2895,9.2824,9.2876,9.2907,9.2913,9.2927,9.2859,9.2975,9.3172,9.3195,9.2938,9.2935,9.2933,0,9.1938,9.2102,9.2232,9.2276,9.2385,9.2445,9.2493,9.2571,9.2633,9.2719,9.2759,9.2856,9.2909,9.2984,9.3019,9.2972,9.3172,9.3114,9.3195,9.3194,9.3237,9.3234,9.3447,9.3268,9.3268,9.3268,9.3267,0,9.2103,9.2214,9.2278,9.2358,9.2482,9.2517,9.2638,9.2684,9.2754,9.2843,9.2849,9.2932,9.2972,9.3061,9.3088,9.3213,9.3237,9.3259,9.3265,9.3259,9.3257,9.3295,9.3286,9.3274,9.3272,9.3271,9.327,0,9.2236,9.2283,9.2426,9.2518,9.2544,9.2631,9.271,9.2787,9.2826,9.2938,9.2966,9.3028,9.3132,9.3175,9.3302,9.332,9.3465,9.3462,9.3438,9.344,9.3519,9.3512,9.3764,9.38,9.3596,9.3598,9.36,0,9.2339,9.2425,9.2527,9.2588,9.2639,9.2736,9.28,9.2837,9.2902,9.3003,9.3069,9.3174,9.326,9.3427,9.3482,9.358,9.358,9.3662,9.3595,9.3587,9.3584,9.3579,9.3589,9.3675,9.3677,9.3679,9.368,0,9.2517,9.2537,9.2629,9.2731,9.2807,9.2888,9.2967,9.3016,9.3065,9.3138,9.3247,9.3314,9.3446,9.355,9.3652,9.3699,9.3699,9.3701,9.3725,9.3721,9.3704,9.3716,9.3474,9.3695,9.3694,9.3692,9.3692,9.3691,9.2639,9.2716,9.2802,9.2905,9.2969,9.3043,9.3121,9.3171,9.3263,9.3375,9.339,9.3507,9.3587,9.3724,9.3776,9.3867,9.3846,9.388,9.3889,9.3897,9.3904,9.3689,9.3885,9.3885,9.3884,9.3884,9.3884,0,9.2819,9.2875,9.2969,9.3081,9.3163,9.3156,9.3244,9.3312,9.3415,9.3491,9.3577,9.3702,9.3804,9.3868,9.397,9.4031,9.4033,9.4057,9.4053,9.4065,9.3916,9.3886,9.4053,9.4053,9.4053,9.4053,9.4053,9.4053,9.2923,9.3054,9.3084,9.3247,9.3301,9.3417,9.3468,9.3536,9.3598,9.3738,9.3824,9.3865,9.3937,9.4045,9.4138,9.4154,9.4192,9.4218,9.4232,9.4092,9.4075,9.4058,9.403,9.4225,9.4225,9.4374,9.4375,9.4376]}]]